Regional Weather Roundup
Issued by NWS Little Rock, AR

Home | Current Version | Previous Version | Graphics & Text | Print | Product List | Glossary On
Versions: 1 2 3 4 5 6 7 8 9 10 11 12 13 14 15 16 17 18 19 20 21 22 23 24 25 26 27 28 29 30 31 32 33 34 35 36 37 38 39 40 41 42 43 44 45 46 47 48 49
000
ASUS44 KLZK 220105
RWRLZK

WEATHER ROUNDUP FOR ARKANSAS
NATIONAL WEATHER SERVICE LITTLE ROCK AR
800 PM CDT SUN SEP 21 2014

NOTE: "FAIR" INDICATES FEW OR NO CLOUDS BELOW 12,000 FEET WITH NO
SIGNIFICANT WEATHER AND/OR OBSTRUCTIONS TO VISIBILITY.

ARZ001-003-010-029-220200-
NORTHWEST ARKANSAS

CITY           SKY/WX    TMP DP  RH WIND       PRES   REMARKS
FAYETTEVILLE   PTCLDY    64  53  67 CALM      30.14R
FORT SMITH     CLEAR     75  57  53 N8        30.08R
HARRISON       CLEAR     65  48  54 NW3       30.14R
BENTONVILLE    PTCLDY    68  50  52 N3        30.15S
ROGERS         PTCLDY    66  52  60 CALM      30.16R
SILOAM SPGS    PTCLDY    66  48  52 N6        30.16R
HIGHFILL       PTCLDY    64  52  64 N6        30.14R
SPRINGDALE     PTCLDY    68  50  52 N6        30.16R
$$

ARZ004-005-016-220200-
NORTH CENTRAL ARKANSAS

CITY           SKY/WX    TMP DP  RH WIND       PRES   REMARKS
BATESVILLE     CLEAR     73  46  38 NW5       30.06R
FLIPPIN        CLEAR     70  46  43 NW5       30.11R
MTN HOME       CLEAR     67  51  56 CALM      30.10R
$$

ARZ040-041-220200-
WEST CENTRAL ARKANSAS

CITY           SKY/WX    TMP DP  RH WIND       PRES   REMARKS
MENA           CLEAR     77  72  83 CALM      30.09R
MOUNT IDA      CLEAR     74  71  91 CALM      30.05R FOG
$$

ARZ009-017-025-026-028-220200-
NORTHEAST ARKANSAS

CITY           SKY/WX    TMP DP  RH WIND       PRES   REMARKS
CORNING          N/A     70  52  52 NW7       30.05R
JONESBORO      PTCLDY    72  51  47 NW3       30.04R
NEWPORT        CLEAR     70  55  58 N15       30.05R
WALNUT RIDGE   CLEAR     68  43  40 N8        30.04R
BLYTHEVILLE    CLEAR     64  58  80 N7        30.03R
$$

ARZ022-023-033-042-044-220200-
CENTRAL ARKANSAS

CITY           SKY/WX    TMP DP  RH WIND       PRES   REMARKS
LITTLE ROCK    PTCLDY    78  69  73 NW7       30.02R
N LITTLE ROCK  PTCLDY    76  72  88 N7        30.02R
JACKSONVILLE   CLEAR     77  71  80 NW6       30.03R
SEARCY         CLEAR     79  60  51 N10       30.05R
HOT SPRINGS    CLEAR     78  69  73 CALM      30.04R
RUSSELLVILLE   CLEAR     73  67  81 NE3       30.05R
CLINTON        FAIR      66  63  88 CALM      30.08R
$$

ARZ036-220200-
EAST ARKANSAS

CITY           SKY/WX    TMP DP  RH WIND       PRES   REMARKS
WEST MEMPHIS   PTCLDY    78  59  51 N13G20    30.01R
$$

ARZ050-053-066-070-073-220200-
SOUTHWEST ARKANSAS

CITY           SKY/WX    TMP DP  RH WIND       PRES   REMARKS
ARKADELPHIA    FAIR      79  73  81 NW3       30.03R
CAMDEN         CLEAR     75  72  88 CALM      30.01R
TEXARKANA      MOCLDY    78  71  79 CALM      30.02R
EL DORADO      PTCLDY    78  71  79 CALM      30.01R
DE QUEEN       PTCLDY    78  71  79 N3        30.02R
$$

ARZ056-057-069-220200-
SOUTHEAST ARKANSAS

CITY           SKY/WX    TMP DP  RH WIND       PRES   REMARKS
PINE BLUFF     CLOUDY    79  70  74 N5        30.01R
STUTTGART      PTCLDY    75  70  83 W5        30.02R
MONTICELLO     PTCLDY    81  71  71 CALM      30.00R HX  85

$$





USA.gov is the U.S. government's official web portal to all federal, state and local government web resources and services.